Time,TemperatureF,DewpointF,PressureIn,WindDirection,WindDirectionDegrees,WindSpeedMPH,WindSpeedGustMPH,Humidity,HourlyPrecipIn,Conditions,Clouds,dailyrainin,SoftwareType,DateUTC
2013-03-28 00:02:00,59.6,43.9,30.00,East,89,11.0,14.0,56,0.00,,---,0.00,VWS V14.01,2013-03-28 05:02:00,
2013-03-28 00:07:00,59.3,43.6,30.00,ESE,103,13.0,14.0,56,0.00,,---,0.00,VWS V14.01,2013-03-28 05:07:00,
2013-03-28 00:13:00,59.1,43.9,30.00,East,87,13.0,14.0,57,0.00,,---,0.00,VWS V14.01,2013-03-28 05:13:00,
2013-03-28 00:18:00,58.8,43.6,30.00,ESE,102,11.0,14.0,57,0.00,,---,0.00,VWS V14.01,2013-03-28 05:18:00,
2013-03-28 00:23:00,58.4,43.7,30.00,East,96,10.0,14.0,58,0.00,,---,0.00,VWS V14.01,2013-03-28 05:23:00,
2013-03-28 00:28:00,58.0,43.8,30.00,East,89,7.0,14.0,59,0.00,,---,0.00,VWS V14.01,2013-03-28 05:28:00,
2013-03-28 00:33:00,58.0,43.8,30.00,ESE,108,11.0,15.0,59,0.00,,---,0.00,VWS V14.01,2013-03-28 05:33:00,
2013-03-28 00:38:00,58.0,43.8,30.00,ESE,113,9.0,15.0,59,0.00,,---,0.00,VWS V14.01,2013-03-28 05:38:00,
2013-03-28 00:43:00,57.8,43.6,30.00,SE,132,7.0,15.0,59,0.00,,---,0.00,VWS V14.01,2013-03-28 05:43:00,
2013-03-28 00:48:00,57.8,44.0,30.00,SE,136,7.0,15.0,60,0.00,,---,0.00,VWS V14.01,2013-03-28 05:48:00,
2013-03-28 00:53:00,57.8,44.0,30.00,East,90,8.0,15.0,60,0.00,,---,0.00,VWS V14.01,2013-03-28 05:53:00,
2013-03-28 00:58:00,57.6,43.8,30.00,SSE,150,7.0,15.0,60,0.00,,---,0.00,VWS V14.01,2013-03-28 05:58:00,
2013-03-28 01:03:00,57.5,43.7,30.00,East,96,7.0,11.0,60,0.00,,---,0.00,VWS V14.01,2013-03-28 06:03:00,
2013-03-28 01:08:00,57.2,43.9,30.00,SE,134,7.0,15.0,61,0.00,,---,0.00,VWS V14.01,2013-03-28 06:08:00,
2013-03-28 01:14:00,57.1,43.8,30.00,ESE,107,12.0,15.0,61,0.00,,---,0.00,VWS V14.01,2013-03-28 06:14:00,
2013-03-28 01:19:00,57.0,43.7,30.00,ESE,113,6.0,15.0,61,0.00,,---,0.00,VWS V14.01,2013-03-28 06:19:00,
2013-03-28 01:24:00,56.9,44.0,30.00,SE,129,8.0,15.0,62,0.00,,---,0.00,VWS V14.01,2013-03-28 06:24:00,
2013-03-28 01:29:00,56.8,43.9,30.00,SE,129,7.0,15.0,62,0.00,,---,0.00,VWS V14.01,2013-03-28 06:29:00,
2013-03-28 01:34:00,56.7,43.8,30.00,East,100,12.0,16.0,62,0.00,,---,0.00,VWS V14.01,2013-03-28 06:34:00,
2013-03-28 01:39:00,56.6,43.8,30.00,ESE,107,8.0,16.0,62,0.00,,---,0.00,VWS V14.01,2013-03-28 06:39:00,
2013-03-28 01:44:00,56.4,44.0,30.00,ESE,113,9.0,16.0,63,0.00,,---,0.00,VWS V14.01,2013-03-28 06:44:00,
2013-03-28 01:50:00,56.3,43.9,29.99,ESE,115,7.0,16.0,63,0.00,,---,0.00,VWS V14.01,2013-03-28 06:50:00,
2013-03-28 01:55:00,56.1,44.1,30.00,SE,125,6.0,16.0,64,0.00,,---,0.00,VWS V14.01,2013-03-28 06:55:00,
2013-03-28 02:00:00,55.9,43.9,30.00,East,100,9.0,16.0,64,0.00,,---,0.00,VWS V14.01,2013-03-28 07:00:00,
2013-03-28 02:05:00,55.6,43.6,30.00,ESE,117,10.0,12.0,64,0.00,,---,0.00,VWS V14.01,2013-03-28 07:05:00,
2013-03-28 02:10:00,55.3,43.8,30.00,ESE,105,8.0,12.0,65,0.00,,---,0.00,VWS V14.01,2013-03-28 07:10:00,
2013-03-28 02:15:00,55.1,44.0,29.99,SE,138,10.0,12.0,66,0.00,,---,0.00,VWS V14.01,2013-03-28 07:15:00,
2013-03-28 02:20:00,54.7,43.6,30.00,ESE,111,12.0,14.0,66,0.00,,---,0.00,VWS V14.01,2013-03-28 07:20:00,
2013-03-28 02:25:00,54.5,43.8,30.00,SE,138,8.0,15.0,67,0.00,,---,0.00,VWS V14.01,2013-03-28 07:25:00,
2013-03-28 02:30:00,54.4,44.1,30.00,SE,135,6.0,15.0,68,0.00,,---,0.00,VWS V14.01,2013-03-28 07:30:00,
2013-03-28 02:35:00,54.7,44.4,29.99,ESE,121,10.0,15.0,68,0.00,,---,0.00,VWS V14.01,2013-03-28 07:35:00,
2013-03-28 02:41:00,54.8,44.1,29.99,SE,132,10.0,15.0,67,0.00,,---,0.00,VWS V14.01,2013-03-28 07:41:00,
2013-03-28 02:46:00,54.9,44.2,29.99,SE,142,12.0,18.0,67,0.00,,---,0.00,VWS V14.01,2013-03-28 07:46:00,
2013-03-28 02:51:00,55.0,44.3,29.99,SSE,148,11.0,18.0,67,0.00,,---,0.00,VWS V14.01,2013-03-28 07:51:00,
2013-03-28 02:56:00,55.1,44.3,29.99,SSE,155,13.0,18.0,67,0.00,,---,0.00,VWS V14.01,2013-03-28 07:56:00,
2013-03-28 03:01:00,55.1,44.3,29.99,SE,127,12.0,16.0,67,0.00,,---,0.00,VWS V14.01,2013-03-28 08:01:00,
2013-03-28 03:06:00,55.0,44.7,29.99,SE,140,11.0,19.0,68,0.00,,---,0.00,VWS V14.01,2013-03-28 08:06:00,
2013-03-28 03:11:00,54.9,44.5,29.99,ESE,123,15.0,19.0,68,0.00,,---,0.00,VWS V14.01,2013-03-28 08:11:00,
2013-03-28 03:16:00,54.8,44.5,29.99,SE,134,13.0,19.0,68,0.00,,---,0.00,VWS V14.01,2013-03-28 08:16:00,
2013-03-28 03:21:00,54.8,44.5,29.99,ESE,120,13.0,19.0,68,0.00,,---,0.00,VWS V14.01,2013-03-28 08:21:00,
2013-03-28 03:26:00,54.7,44.7,30.00,ESE,117,9.0,19.0,69,0.00,,---,0.00,VWS V14.01,2013-03-28 08:26:00,
2013-03-28 03:32:00,54.6,44.7,29.99,ESE,122,10.0,14.0,69,0.00,,---,0.00,VWS V14.01,2013-03-28 08:32:00,
2013-03-28 03:37:00,54.4,44.5,29.99,SE,124,11.0,16.0,69,0.00,,---,0.00,VWS V14.01,2013-03-28 08:37:00,
2013-03-28 03:42:00,54.5,44.5,29.99,ESE,114,10.0,17.0,69,0.00,,---,0.00,VWS V14.01,2013-03-28 08:42:00,
2013-03-28 03:47:00,54.7,44.7,29.99,SE,124,11.0,17.0,69,0.00,,---,0.00,VWS V14.01,2013-03-28 08:47:00,
2013-03-28 03:52:00,54.8,44.8,29.99,SE,138,10.0,17.0,69,0.00,,---,0.00,VWS V14.01,2013-03-28 08:52:00,
2013-03-28 03:57:00,54.9,44.9,29.99,SE,141,8.0,17.0,69,0.00,,---,0.00,VWS V14.01,2013-03-28 08:57:00,
2013-03-28 04:02:00,55.0,45.0,29.99,SSE,148,8.0,17.0,69,0.00,,---,0.00,VWS V14.01,2013-03-28 09:02:00,
2013-03-28 04:07:00,55.2,44.8,29.99,SE,124,14.0,17.0,68,0.00,,---,0.00,VWS V14.01,2013-03-28 09:07:00,
2013-03-28 04:12:00,55.1,45.1,29.99,ESE,121,12.0,17.0,69,0.00,,---,0.00,VWS V14.01,2013-03-28 09:12:00,
2013-03-28 04:17:00,55.0,45.0,29.99,ESE,117,11.0,17.0,69,0.00,,---,0.00,VWS V14.01,2013-03-28 09:17:00,
2013-03-28 04:22:00,54.9,44.9,29.99,ESE,117,10.0,17.0,69,0.00,,---,0.00,VWS V14.01,2013-03-28 09:22:00,
2013-03-28 04:27:00,54.7,44.7,29.99,ESE,117,8.0,17.0,69,0.00,,---,0.00,VWS V14.01,2013-03-28 09:27:00,
2013-03-28 04:32:00,54.6,45.0,29.99,SSE,150,11.0,14.0,70,0.00,,---,0.00,VWS V14.01,2013-03-28 09:32:00,
2013-03-28 04:37:00,54.4,44.8,29.99,SE,129,9.0,14.0,70,0.00,,---,0.00,VWS V14.01,2013-03-28 09:37:00,
2013-03-28 04:42:00,54.2,45.0,29.99,ESE,110,7.0,15.0,71,0.00,,---,0.00,VWS V14.01,2013-03-28 09:42:00,
2013-03-28 04:47:00,53.9,44.7,30.00,SE,132,8.0,15.0,71,0.00,,---,0.00,VWS V14.01,2013-03-28 09:47:00,
2013-03-28 04:52:00,53.7,44.5,30.00,ESE,120,7.0,15.0,71,0.00,,---,0.00,VWS V14.01,2013-03-28 09:52:00,
2013-03-28 04:57:00,53.6,44.8,30.00,ESE,102,9.0,15.0,72,0.00,,---,0.00,VWS V14.01,2013-03-28 09:57:00,
2013-03-28 05:03:00,53.4,44.6,30.00,SE,127,9.0,12.0,72,0.00,,---,0.00,VWS V14.01,2013-03-28 10:03:00,
2013-03-28 05:08:00,53.2,44.8,30.00,SSE,148,6.0,12.0,73,0.00,,---,0.00,VWS V14.01,2013-03-28 10:08:00,
2013-03-28 05:13:00,53.2,44.8,30.00,SE,133,7.0,12.0,73,0.00,,---,0.00,VWS V14.01,2013-03-28 10:13:00,
2013-03-28 05:18:00,53.3,44.9,30.00,SSE,162,8.0,12.0,73,0.00,,---,0.00,VWS V14.01,2013-03-28 10:18:00,
2013-03-28 05:23:00,53.3,44.9,30.00,SE,129,7.0,13.0,73,0.00,,---,0.00,VWS V14.01,2013-03-28 10:23:00,
2013-03-28 05:28:00,53.2,44.8,30.01,ESE,113,9.0,13.0,73,0.00,,---,0.00,VWS V14.01,2013-03-28 10:28:00,
2013-03-28 05:33:00,53.3,44.9,30.01,ESE,120,7.0,13.0,73,0.00,,---,0.00,VWS V14.01,2013-03-28 10:33:00,
2013-03-28 05:38:00,53.3,44.9,30.01,SE,135,4.0,13.0,73,0.00,,---,0.00,VWS V14.01,2013-03-28 10:38:00,
2013-03-28 05:43:00,53.0,45.0,30.01,SE,135,7.0,13.0,74,0.00,,---,0.00,VWS V14.01,2013-03-28 10:43:00,
2013-03-28 05:49:00,53.0,45.0,30.01,ESE,115,8.0,13.0,74,0.00,,---,0.00,VWS V14.01,2013-03-28 10:49:00,
2013-03-28 05:54:00,53.0,45.0,30.01,SE,132,7.0,13.0,74,0.00,,---,0.00,VWS V14.01,2013-03-28 10:54:00,
2013-03-28 05:59:00,53.1,45.0,30.01,ESE,108,8.0,13.0,74,0.00,,---,0.00,VWS V14.01,2013-03-28 10:59:00,
2013-03-28 06:04:00,53.2,45.1,30.01,ESE,110,6.0,11.0,74,0.00,,---,0.00,VWS V14.01,2013-03-28 11:04:00,
2013-03-28 06:09:00,53.1,45.0,30.02,SE,131,6.0,11.0,74,0.00,,---,0.00,VWS V14.01,2013-03-28 11:09:00,
2013-03-28 06:14:00,53.1,45.4,30.02,SSE,151,6.0,12.0,75,0.00,,---,0.00,VWS V14.01,2013-03-28 11:14:00,
2013-03-28 06:19:00,53.3,45.6,30.01,SE,127,6.0,12.0,75,0.00,,---,0.00,VWS V14.01,2013-03-28 11:19:00,
2013-03-28 06:24:00,53.4,45.3,30.01,ESE,115,8.0,12.0,74,0.00,,---,0.00,VWS V14.01,2013-03-28 11:24:00,
2013-03-28 06:30:00,53.3,45.6,30.01,SSE,155,8.0,12.0,75,0.00,,---,0.00,VWS V14.01,2013-03-28 11:30:00,
2013-03-28 06:35:00,53.2,45.5,30.02,ESE,120,11.0,13.0,75,0.00,,---,0.00,VWS V14.01,2013-03-28 11:35:00,
2013-03-28 06:40:00,52.9,45.2,30.02,SE,129,6.0,13.0,75,0.00,,---,0.00,VWS V14.01,2013-03-28 11:40:00,
2013-03-28 06:45:00,52.8,45.5,30.02,ESE,107,8.0,13.0,76,0.00,,---,0.00,VWS V14.01,2013-03-28 11:45:00,
2013-03-28 06:50:00,52.7,45.4,30.02,ESE,115,10.0,13.0,76,0.00,,---,0.00,VWS V14.01,2013-03-28 11:50:00,
2013-03-28 06:55:00,52.6,45.3,30.02,SE,143,6.0,13.0,76,0.00,,---,0.00,VWS V14.01,2013-03-28 11:55:00,
2013-03-28 07:00:00,52.4,45.1,30.03,SE,134,7.0,13.0,76,0.00,,---,0.00,VWS V14.01,2013-03-28 12:00:00,
2013-03-28 07:05:00,52.3,45.3,30.02,ESE,123,8.0,10.0,77,0.00,,---,0.00,VWS V14.01,2013-03-28 12:05:00,
2013-03-28 07:10:00,52.3,45.3,30.03,SE,131,8.0,11.0,77,0.00,,---,0.00,VWS V14.01,2013-03-28 12:10:00,
2013-03-28 07:15:00,52.2,45.2,30.03,SE,135,8.0,11.0,77,0.00,,---,0.00,VWS V14.01,2013-03-28 12:15:00,
2013-03-28 07:20:00,52.0,45.0,30.03,SE,139,7.0,11.0,77,0.00,,---,0.00,VWS V14.01,2013-03-28 12:20:00,
2013-03-28 07:26:00,51.6,45.0,30.03,SE,124,9.0,11.0,78,0.00,,---,0.00,VWS V14.01,2013-03-28 12:26:00,
2013-03-28 07:31:00,51.4,44.8,30.04,ESE,115,5.0,9.0,78,0.00,,---,0.00,VWS V14.01,2013-03-28 12:31:00,
2013-03-28 07:37:00,51.4,45.1,30.04,SE,131,7.0,9.0,79,0.00,,---,0.00,VWS V14.01,2013-03-28 12:37:00,
2013-03-28 07:42:00,51.4,45.1,30.04,ESE,123,8.0,11.0,79,0.00,,---,0.00,VWS V14.01,2013-03-28 12:42:00,
2013-03-28 07:47:00,51.3,45.0,30.04,SE,131,9.0,11.0,79,0.00,,---,0.00,VWS V14.01,2013-03-28 12:47:00,
2013-03-28 07:52:00,51.2,44.9,30.04,SE,136,5.0,11.0,79,0.00,,---,0.00,VWS V14.01,2013-03-28 12:52:00,
2013-03-28 07:57:00,51.5,45.2,30.05,SE,146,7.0,12.0,79,0.00,,---,0.00,VWS V14.01,2013-03-28 12:57:00,
2013-03-28 08:02:00,52.0,45.4,30.05,SSE,163,4.0,8.0,78,0.00,,---,0.00,VWS V14.01,2013-03-28 13:02:00,
2013-03-28 08:07:00,52.4,45.8,30.05,ESE,115,10.0,10.0,78,0.00,,---,0.00,VWS V14.01,2013-03-28 13:07:00,
2013-03-28 08:12:00,53.0,46.0,30.05,ESE,110,11.0,12.0,77,0.00,,---,0.00,VWS V14.01,2013-03-28 13:12:00,
2013-03-28 08:17:00,53.4,46.0,30.05,SSE,155,7.0,16.0,76,0.00,,---,0.00,VWS V14.01,2013-03-28 13:17:00,
2013-03-28 08:22:00,53.8,46.1,30.05,ESE,120,7.0,16.0,75,0.00,,---,0.00,VWS V14.01,2013-03-28 13:22:00,
2013-03-28 08:27:00,54.0,45.9,30.05,SSE,152,8.0,16.0,74,0.00,,---,0.00,VWS V14.01,2013-03-28 13:27:00,
2013-03-28 08:32:00,54.3,45.8,30.05,ESE,105,10.0,15.0,73,0.00,,---,0.00,VWS V14.01,2013-03-28 13:32:00,
2013-03-28 08:38:00,54.3,45.8,30.05,SE,131,8.0,15.0,73,0.00,,---,0.00,VWS V14.01,2013-03-28 13:38:00,
2013-03-28 08:43:00,54.3,45.8,30.05,SE,135,7.0,19.0,73,0.00,,---,0.00,VWS V14.01,2013-03-28 13:43:00,
2013-03-28 08:48:00,54.7,46.2,30.05,SE,138,10.0,19.0,73,0.00,,---,0.00,VWS V14.01,2013-03-28 13:48:00,
2013-03-28 08:53:00,55.0,46.2,30.05,SE,124,15.0,19.0,72,0.00,,---,0.00,VWS V14.01,2013-03-28 13:53:00,
2013-03-28 08:58:00,55.3,46.1,30.05,SE,133,12.0,19.0,71,0.00,,---,0.00,VWS V14.01,2013-03-28 13:58:00,
2013-03-28 09:03:00,55.6,46.4,30.05,SE,139,10.0,16.0,71,0.00,,---,0.00,VWS V14.01,2013-03-28 14:03:00,
2013-03-28 09:08:00,55.9,46.7,30.05,South,169,11.0,17.0,71,0.00,,---,0.00,VWS V14.01,2013-03-28 14:08:00,
2013-03-28 09:13:00,56.3,47.0,30.05,ESE,103,12.0,17.0,71,0.00,,---,0.00,VWS V14.01,2013-03-28 14:13:00,
2013-03-28 09:18:00,56.8,47.1,30.05,SSE,155,16.0,18.0,70,0.00,,---,0.00,VWS V14.01,2013-03-28 14:18:00,
2013-03-28 09:24:00,57.1,47.4,30.05,SE,139,11.0,19.0,70,0.00,,---,0.00,VWS V14.01,2013-03-28 14:24:00,
2013-03-28 09:29:00,57.6,47.5,30.05,SE,139,16.0,19.0,69,0.00,,---,0.00,VWS V14.01,2013-03-28 14:29:00,
2013-03-28 09:34:00,57.8,47.3,30.05,SE,131,16.0,18.0,68,0.00,,---,0.00,VWS V14.01,2013-03-28 14:34:00,
2013-03-28 09:39:00,58.0,47.5,30.05,SE,135,14.0,18.0,68,0.00,,---,0.00,VWS V14.01,2013-03-28 14:39:00,
2013-03-28 09:44:00,58.4,47.9,30.05,ESE,120,14.0,20.0,68,0.00,,---,0.00,VWS V14.01,2013-03-28 14:44:00,
2013-03-28 09:49:00,58.2,47.7,30.05,SE,146,16.0,21.0,68,0.00,,---,0.00,VWS V14.01,2013-03-28 14:49:00,
2013-03-28 09:54:00,58.5,48.0,30.05,SE,132,11.0,22.0,68,0.00,,---,0.00,VWS V14.01,2013-03-28 14:54:00,
2013-03-28 09:59:00,59.2,47.9,30.05,SSE,157,14.0,22.0,66,0.00,,---,0.00,VWS V14.01,2013-03-28 14:59:00,
2013-03-28 10:04:00,59.8,48.4,30.05,SSE,153,14.0,20.0,66,0.00,,---,0.00,VWS V14.01,2013-03-28 15:04:00,
2013-03-28 10:09:00,60.4,48.6,30.05,SE,142,20.0,22.0,65,0.00,,---,0.00,VWS V14.01,2013-03-28 15:09:00,
2013-03-28 10:14:00,60.8,49.0,30.05,SE,145,19.0,23.0,65,0.00,,---,0.00,VWS V14.01,2013-03-28 15:14:00,
2013-03-28 10:20:00,61.2,48.9,30.05,South,186,14.0,23.0,64,0.00,,---,0.00,VWS V14.01,2013-03-28 15:20:00,
2013-03-28 10:25:00,61.6,48.9,30.05,SE,139,17.0,23.0,63,0.00,,---,0.00,VWS V14.01,2013-03-28 15:25:00,
2013-03-28 10:30:00,61.7,49.0,30.05,SSE,162,11.0,23.0,63,0.00,,---,0.00,VWS V14.01,2013-03-28 15:30:00,
2013-03-28 10:35:00,62.0,49.3,30.05,SE,139,15.0,21.0,63,0.00,,---,0.00,VWS V14.01,2013-03-28 15:35:00,
2013-03-28 10:40:00,62.4,49.7,30.04,SSE,153,11.0,21.0,63,0.00,,---,0.00,VWS V14.01,2013-03-28 15:40:00,
2013-03-28 10:45:00,62.8,49.2,30.04,SSE,153,18.0,26.0,61,0.00,,---,0.00,VWS V14.01,2013-03-28 15:45:00,
2013-03-28 10:50:00,63.3,50.1,30.04,South,174,13.0,26.0,62,0.00,,---,0.00,VWS V14.01,2013-03-28 15:50:00,
2013-03-28 10:55:00,63.7,50.0,30.04,SE,132,13.0,26.0,61,0.00,,---,0.00,VWS V14.01,2013-03-28 15:55:00,
2013-03-28 11:00:00,64.3,50.6,30.04,SE,139,19.0,26.0,61,0.00,,---,0.00,VWS V14.01,2013-03-28 16:00:00,
2013-03-28 11:06:00,64.9,50.7,30.04,SSW,192,11.0,22.0,60,0.00,,---,0.00,VWS V14.01,2013-03-28 16:06:00,
2013-03-28 11:11:00,65.3,50.6,30.04,SE,132,13.0,22.0,59,0.00,,---,0.00,VWS V14.01,2013-03-28 16:11:00,
2013-03-28 11:16:00,65.6,50.4,30.04,SSE,162,13.0,23.0,58,0.00,,---,0.00,VWS V14.01,2013-03-28 16:16:00,
2013-03-28 11:21:00,66.0,50.8,30.04,South,186,18.0,23.0,58,0.00,,---,0.00,VWS V14.01,2013-03-28 16:21:00,
2013-03-28 11:26:00,66.0,50.8,30.04,SSE,153,18.0,23.0,58,0.00,,---,0.00,VWS V14.01,2013-03-28 16:26:00,
2013-03-28 11:31:00,66.3,51.1,30.04,SE,139,17.0,18.0,58,0.00,,---,0.00,VWS V14.01,2013-03-28 16:31:00,
2013-03-28 11:36:00,66.2,50.5,30.04,SSW,195,17.0,23.0,57,0.00,,---,0.00,VWS V14.01,2013-03-28 16:36:00,
2013-03-28 11:42:00,66.6,50.9,30.04,SSE,148,14.0,23.0,57,0.00,,---,0.00,VWS V14.01,2013-03-28 16:42:00,
2013-03-28 11:47:00,67.0,51.3,30.04,SSE,148,11.0,23.0,57,0.00,,---,0.00,VWS V14.01,2013-03-28 16:47:00,
2013-03-28 11:52:00,67.2,51.5,30.04,SE,137,20.0,24.0,57,0.00,,---,0.00,VWS V14.01,2013-03-28 16:52:00,
2013-03-28 11:57:00,67.5,51.3,30.03,SSE,152,14.0,24.0,56,0.00,,---,0.00,VWS V14.01,2013-03-28 16:57:00,
2013-03-28 12:02:00,67.7,51.0,30.03,SE,139,13.0,17.0,55,0.00,,---,0.00,VWS V14.01,2013-03-28 17:02:00,
2013-03-28 12:07:00,67.7,51.0,30.03,SSE,153,16.0,23.0,55,0.00,,---,0.00,VWS V14.01,2013-03-28 17:07:00,
2013-03-28 12:12:00,68.0,51.7,30.03,SSW,195,13.0,23.0,56,0.00,,---,0.00,VWS V14.01,2013-03-28 17:12:00,
2013-03-28 12:17:00,68.5,51.7,30.03,SE,146,13.0,23.0,55,0.00,,---,0.00,VWS V14.01,2013-03-28 17:17:00,
2013-03-28 12:22:00,68.8,51.5,30.03,SE,127,10.0,25.0,54,0.00,,---,0.00,VWS V14.01,2013-03-28 17:22:00,
2013-03-28 12:28:00,69.0,51.2,30.03,South,169,9.0,25.0,53,0.00,,---,0.00,VWS V14.01,2013-03-28 17:28:00,
2013-03-28 12:33:00,69.2,51.4,30.03,South,184,10.0,18.0,53,0.00,,---,0.00,VWS V14.01,2013-03-28 17:33:00,
2013-03-28 12:38:00,69.6,52.2,30.02,SSE,149,8.0,18.0,54,0.00,,---,0.00,VWS V14.01,2013-03-28 17:38:00,
2013-03-28 12:43:00,70.0,51.6,30.02,South,170,11.0,18.0,52,0.00,,---,0.00,VWS V14.01,2013-03-28 17:43:00,
2013-03-28 12:48:00,69.8,50.9,30.02,SSE,162,12.0,23.0,51,0.00,,---,0.00,VWS V14.01,2013-03-28 17:48:00,
2013-03-28 12:53:00,70.2,51.8,30.02,ESE,115,14.0,23.0,52,0.00,,---,0.00,VWS V14.01,2013-03-28 17:53:00,
2013-03-28 12:58:00,70.4,51.4,30.02,SE,124,12.0,23.0,51,0.00,,---,0.00,VWS V14.01,2013-03-28 17:58:00,
2013-03-28 13:03:00,70.4,52.0,30.01,SE,138,12.0,14.0,52,0.00,,---,0.00,VWS V14.01,2013-03-28 18:03:00,
2013-03-28 13:08:00,71.0,51.5,30.01,South,169,14.0,19.0,50,0.00,,---,0.00,VWS V14.01,2013-03-28 18:08:00,
2013-03-28 13:13:00,71.1,51.5,30.01,South,172,10.0,19.0,50,0.00,,---,0.00,VWS V14.01,2013-03-28 18:13:00,
2013-03-28 13:19:00,70.8,51.8,30.01,SE,145,10.0,22.0,51,0.00,,---,0.00,VWS V14.01,2013-03-28 18:19:00,
2013-03-28 13:24:00,71.3,51.7,30.01,SSE,156,12.0,22.0,50,0.00,,---,0.00,VWS V14.01,2013-03-28 18:24:00,
2013-03-28 13:29:00,71.1,51.5,30.01,SSE,152,8.0,22.0,50,0.00,,---,0.00,VWS V14.01,2013-03-28 18:29:00,
2013-03-28 13:34:00,71.4,51.8,30.01,SSE,159,8.0,16.0,50,0.00,,---,0.00,VWS V14.01,2013-03-28 18:34:00,
2013-03-28 13:39:00,71.8,52.2,30.00,East,100,9.0,18.0,50,0.00,,---,0.00,VWS V14.01,2013-03-28 18:39:00,
2013-03-28 13:44:00,71.9,51.7,30.00,SSE,148,16.0,21.0,49,0.00,,---,0.00,VWS V14.01,2013-03-28 18:44:00,
2013-03-28 13:49:00,71.9,51.7,30.00,SE,140,12.0,21.0,49,0.00,,---,0.00,VWS V14.01,2013-03-28 18:49:00,
2013-03-28 13:54:00,71.9,52.3,30.00,South,181,11.0,21.0,50,0.00,,---,0.00,VWS V14.01,2013-03-28 18:54:00,
2013-03-28 13:59:00,72.2,51.4,29.99,SSE,159,14.0,21.0,48,0.00,,---,0.00,VWS V14.01,2013-03-28 18:59:00,
2013-03-28 14:04:00,71.9,51.2,29.99,SSE,160,9.0,18.0,48,0.00,,---,0.00,VWS V14.01,2013-03-28 19:04:00,
2013-03-28 14:10:00,72.4,51.0,29.99,SSE,148,10.0,18.0,47,0.00,,---,0.00,VWS V14.01,2013-03-28 19:10:00,
2013-03-28 14:15:00,72.6,51.2,29.99,SSE,165,8.0,18.0,47,0.00,,---,0.00,VWS V14.01,2013-03-28 19:15:00,
2013-03-28 14:20:00,72.9,51.5,29.99,SSE,165,10.0,18.0,47,0.00,,---,0.00,VWS V14.01,2013-03-28 19:20:00,
2013-03-28 14:25:00,73.2,51.8,29.99,East,97,13.0,19.0,47,0.00,,---,0.00,VWS V14.01,2013-03-28 19:25:00,
2013-03-28 14:30:00,72.9,51.5,29.98,SSE,149,11.0,19.0,47,0.00,,---,0.00,VWS V14.01,2013-03-28 19:30:00,
2013-03-28 14:35:00,72.8,50.8,29.98,SSE,156,14.0,16.0,46,0.00,,---,0.00,VWS V14.01,2013-03-28 19:35:00,
2013-03-28 14:40:00,73.3,51.9,29.97,SSE,159,10.0,18.0,47,0.00,,---,0.00,VWS V14.01,2013-03-28 19:40:00,
2013-03-28 14:45:00,74.0,51.3,29.97,ESE,117,7.0,18.0,45,0.00,,---,0.00,VWS V14.01,2013-03-28 19:45:00,
2013-03-28 14:50:00,74.5,51.8,29.97,South,184,11.0,21.0,45,0.00,,---,0.00,VWS V14.01,2013-03-28 19:50:00,
2013-03-28 14:56:00,75.0,51.6,29.96,SE,137,16.0,21.0,44,0.00,,---,0.00,VWS V14.01,2013-03-28 19:56:00,
2013-03-28 15:01:00,74.8,51.5,29.96,SE,145,13.0,21.0,44,0.00,,---,0.00,VWS V14.01,2013-03-28 20:01:00,
2013-03-28 15:06:00,75.1,51.7,29.96,SE,135,14.0,19.0,44,0.00,,---,0.00,VWS V14.01,2013-03-28 20:06:00,
2013-03-28 15:11:00,75.3,52.5,29.95,East,82,8.0,19.0,45,0.00,,---,0.00,VWS V14.01,2013-03-28 20:11:00,
2013-03-28 15:16:00,76.0,51.3,29.96,SSE,158,12.0,19.0,42,0.00,,---,0.00,VWS V14.01,2013-03-28 20:16:00,
2013-03-28 15:21:00,76.0,51.9,29.96,South,174,14.0,19.0,43,0.00,,---,0.00,VWS V14.01,2013-03-28 20:21:00,
2013-03-28 15:26:00,76.1,52.0,29.95,ESE,107,7.0,19.0,43,0.00,,---,0.00,VWS V14.01,2013-03-28 20:26:00,
2013-03-28 15:31:00,76.2,50.8,29.94,SSE,166,16.0,20.0,41,0.00,,---,0.00,VWS V14.01,2013-03-28 20:31:00,
2013-03-28 15:37:00,76.0,51.9,29.94,ESE,111,20.0,22.0,43,0.00,,---,0.00,VWS V14.01,2013-03-28 20:37:00,
2013-03-28 15:42:00,76.3,51.5,29.94,SE,143,8.0,23.0,42,0.00,,---,0.00,VWS V14.01,2013-03-28 20:42:00,
2013-03-28 15:47:00,76.2,51.5,29.94,SE,129,12.0,23.0,42,0.00,,---,0.00,VWS V14.01,2013-03-28 20:47:00,
2013-03-28 15:52:00,76.6,51.2,29.93,SSE,167,13.0,23.0,41,0.00,,---,0.00,VWS V14.01,2013-03-28 20:52:00,
2013-03-28 15:57:00,76.4,51.6,29.93,South,180,11.0,23.0,42,0.00,,---,0.00,VWS V14.01,2013-03-28 20:57:00,
2013-03-28 16:02:00,76.5,51.1,29.93,SSE,160,14.0,23.0,41,0.00,,---,0.00,VWS V14.01,2013-03-28 21:02:00,
2013-03-28 16:07:00,76.4,51.6,29.93,SSE,150,9.0,23.0,42,0.00,,---,0.00,VWS V14.01,2013-03-28 21:07:00,
2013-03-28 16:13:00,77.2,51.7,29.93,SE,142,11.0,23.0,41,0.00,,---,0.00,VWS V14.01,2013-03-28 21:13:00,
2013-03-28 16:18:00,77.0,51.5,29.93,SSE,166,11.0,23.0,41,0.00,,---,0.00,VWS V14.01,2013-03-28 21:18:00,
2013-03-28 16:23:00,77.2,51.7,29.92,SSE,156,11.0,23.0,41,0.00,,---,0.00,VWS V14.01,2013-03-28 21:23:00,
2013-03-28 16:28:00,77.4,51.9,29.92,SSE,150,13.0,23.0,41,0.00,,---,0.00,VWS V14.01,2013-03-28 21:28:00,
2013-03-28 16:33:00,77.5,52.0,29.92,SE,142,12.0,17.0,41,0.00,,---,0.00,VWS V14.01,2013-03-28 21:33:00,
2013-03-28 16:38:00,77.8,51.6,29.92,SSE,155,14.0,20.0,40,0.00,,---,0.00,VWS V14.01,2013-03-28 21:38:00,
2013-03-28 16:43:00,77.5,52.0,29.92,SSE,165,12.0,20.0,41,0.00,,---,0.00,VWS V14.01,2013-03-28 21:43:00,
2013-03-28 16:48:00,77.9,53.0,29.92,SSE,158,9.0,20.0,42,0.00,,---,0.00,VWS V14.01,2013-03-28 21:48:00,
2013-03-28 16:53:00,78.3,52.0,29.92,South,179,9.0,20.0,40,0.00,,---,0.00,VWS V14.01,2013-03-28 21:53:00,
2013-03-28 16:59:00,78.5,52.2,29.92,SW,221,10.0,20.0,40,0.00,,---,0.00,VWS V14.01,2013-03-28 21:59:00,
2013-03-28 17:04:00,78.5,51.5,29.92,SSE,165,11.0,17.0,39,0.00,,---,0.00,VWS V14.01,2013-03-28 22:04:00,
2013-03-28 17:09:00,78.5,51.5,29.92,SW,214,10.0,17.0,39,0.00,,---,0.00,VWS V14.01,2013-03-28 22:09:00,
2013-03-28 17:14:00,78.3,51.3,29.92,South,187,12.0,19.0,39,0.00,,---,0.00,VWS V14.01,2013-03-28 22:14:00,
2013-03-28 17:19:00,78.2,51.2,29.92,SSW,197,13.0,19.0,39,0.00,,---,0.00,VWS V14.01,2013-03-28 22:19:00,
2013-03-28 17:24:00,78.1,51.2,29.92,SE,139,10.0,19.0,39,0.00,,---,0.00,VWS V14.01,2013-03-28 22:24:00,
2013-03-28 17:29:00,78.5,50.8,29.92,SSW,198,12.0,19.0,38,0.00,,---,0.00,VWS V14.01,2013-03-28 22:29:00,
2013-03-28 17:34:00,78.6,50.9,29.92,SSW,194,8.0,14.0,38,0.00,,---,0.00,VWS V14.01,2013-03-28 22:34:00,
2013-03-28 17:39:00,78.8,51.1,29.91,SSW,193,11.0,18.0,38,0.00,,---,0.00,VWS V14.01,2013-03-28 22:39:00,
2013-03-28 17:45:00,78.5,50.8,29.91,SSE,159,10.0,18.0,38,0.00,,---,0.00,VWS V14.01,2013-03-28 22:45:00,
2013-03-28 17:50:00,78.5,50.8,29.91,SE,137,13.0,18.0,38,0.00,,---,0.00,VWS V14.01,2013-03-28 22:50:00,
2013-03-28 17:55:00,78.4,51.4,29.91,SSE,162,10.0,18.0,39,0.00,,---,0.00,VWS V14.01,2013-03-28 22:55:00,
2013-03-28 18:00:00,78.5,50.8,29.91,SE,135,10.0,18.0,38,0.00,,---,0.00,VWS V14.01,2013-03-28 23:00:00,
2013-03-28 18:05:00,78.3,51.3,29.91,SSE,168,11.0,18.0,39,0.00,,---,0.00,VWS V14.01,2013-03-28 23:05:00,
2013-03-28 18:10:00,78.3,50.6,29.91,SE,134,10.0,18.0,38,0.00,,---,0.00,VWS V14.01,2013-03-28 23:10:00,
2013-03-28 18:16:00,78.5,50.8,29.91,SSE,159,10.0,18.0,38,0.00,,---,0.00,VWS V14.01,2013-03-28 23:16:00,
2013-03-28 18:21:00,78.5,50.8,29.92,South,183,12.0,18.0,38,0.00,,---,0.00,VWS V14.01,2013-03-28 23:21:00,
2013-03-28 18:26:00,78.3,50.6,29.91,SSE,148,9.0,18.0,38,0.00,,---,0.00,VWS V14.01,2013-03-28 23:26:00,
2013-03-28 18:31:00,78.4,50.7,29.91,SSE,163,11.0,13.0,38,0.00,,---,0.00,VWS V14.01,2013-03-28 23:31:00,
2013-03-28 18:36:00,78.1,51.2,29.91,SSE,155,13.0,14.0,39,0.00,,---,0.00,VWS V14.01,2013-03-28 23:36:00,
2013-03-28 18:41:00,77.8,50.9,29.91,SE,145,8.0,15.0,39,0.00,,---,0.00,VWS V14.01,2013-03-28 23:41:00,
2013-03-28 18:47:00,77.8,50.9,29.91,SE,145,8.0,15.0,39,0.00,,---,0.00,VWS V14.01,2013-03-28 23:47:00,
2013-03-28 18:52:00,77.5,50.6,29.91,South,179,7.0,15.0,39,0.00,,---,0.00,VWS V14.01,2013-03-28 23:52:00,
2013-03-28 18:57:00,77.3,51.8,29.92,SE,131,6.0,15.0,41,0.00,,---,0.00,VWS V14.01,2013-03-28 23:57:00,
2013-03-28 19:02:00,76.9,50.8,29.91,SSE,154,9.0,11.0,40,0.00,,---,0.00,VWS V14.01,2013-03-29 00:02:00,
2013-03-28 19:07:00,76.3,50.9,29.91,SE,138,5.0,11.0,41,0.00,,---,0.00,VWS V14.01,2013-03-29 00:07:00,
2013-03-28 19:12:00,76.0,51.3,29.91,SE,134,8.0,12.0,42,0.00,,---,0.00,VWS V14.01,2013-03-29 00:12:00,
2013-03-28 19:17:00,75.8,51.1,29.91,SE,136,6.0,12.0,42,0.00,,---,0.00,VWS V14.01,2013-03-29 00:17:00,
2013-03-28 19:22:00,75.5,51.5,29.91,SE,132,4.0,12.0,43,0.00,,---,0.00,VWS V14.01,2013-03-29 00:22:00,
2013-03-28 19:27:00,75.2,51.2,29.91,SE,127,4.0,12.0,43,0.00,,---,0.00,VWS V14.01,2013-03-29 00:27:00,
2013-03-28 19:32:00,75.0,51.6,29.92,SE,134,5.0,7.0,44,0.00,,---,0.00,VWS V14.01,2013-03-29 00:32:00,
2013-03-28 19:37:00,74.6,51.9,29.92,SE,136,5.0,8.0,45,0.00,,---,0.00,VWS V14.01,2013-03-29 00:37:00,
2013-03-28 19:42:00,73.5,52.1,29.92,ESE,120,4.0,8.0,47,0.00,,---,0.00,VWS V14.01,2013-03-29 00:42:00,
2013-03-28 19:47:00,72.7,51.9,29.92,SE,128,4.0,8.0,48,0.00,,---,0.00,VWS V14.01,2013-03-29 00:47:00,
2013-03-28 19:52:00,71.9,51.7,29.92,ESE,103,3.0,8.0,49,0.00,,---,0.00,VWS V14.01,2013-03-29 00:52:00,
2013-03-28 19:57:00,71.4,51.8,29.92,East,98,6.0,8.0,50,0.00,,---,0.00,VWS V14.01,2013-03-29 00:57:00,
2013-03-28 20:03:00,71.2,51.6,29.92,ESE,113,6.0,8.0,50,0.00,,---,0.00,VWS V14.01,2013-03-29 01:03:00,
2013-03-28 20:08:00,71.2,52.2,29.92,ESE,110,6.0,11.0,51,0.00,,---,0.00,VWS V14.01,2013-03-29 01:08:00,
2013-03-28 20:13:00,71.0,52.0,29.92,East,100,6.0,11.0,51,0.00,,---,0.00,VWS V14.01,2013-03-29 01:13:00,
2013-03-28 20:18:00,70.6,52.1,29.92,ESE,107,8.0,11.0,52,0.00,,---,0.00,VWS V14.01,2013-03-29 01:18:00,
2013-03-28 20:23:00,70.4,52.0,29.92,ESE,111,8.0,11.0,52,0.00,,---,0.00,VWS V14.01,2013-03-29 01:23:00,
2013-03-28 20:28:00,70.3,52.4,29.92,ESE,102,6.0,11.0,53,0.00,,---,0.00,VWS V14.01,2013-03-29 01:28:00,
2013-03-28 20:33:00,70.0,52.1,29.92,ESE,110,6.0,9.0,53,0.00,,---,0.00,VWS V14.01,2013-03-29 01:33:00,
2013-03-28 20:38:00,69.7,52.3,29.93,East,98,5.0,9.0,54,0.00,,---,0.00,VWS V14.01,2013-03-29 01:38:00,
2013-03-28 20:44:00,69.5,52.2,29.93,East,86,8.0,11.0,54,0.00,,---,0.00,VWS V14.01,2013-03-29 01:44:00,
2013-03-28 20:49:00,69.3,52.5,29.93,East,87,5.0,11.0,55,0.00,,---,0.00,VWS V14.01,2013-03-29 01:49:00,
2013-03-28 20:54:00,69.0,52.2,29.93,East,98,5.0,11.0,55,0.00,,---,0.00,VWS V14.01,2013-03-29 01:54:00,
2013-03-28 20:59:00,68.6,52.3,29.93,East,101,6.0,11.0,56,0.00,,---,0.00,VWS V14.01,2013-03-29 01:59:00,
2013-03-28 21:04:00,68.4,52.1,29.93,East,101,5.0,10.0,56,0.00,,---,0.00,VWS V14.01,2013-03-29 02:04:00,
2013-03-28 21:09:00,68.1,52.3,29.94,ESE,103,6.0,11.0,57,0.00,,---,0.00,VWS V14.01,2013-03-29 02:09:00,
2013-03-28 21:14:00,67.8,52.5,29.94,ESE,107,8.0,11.0,58,0.00,,---,0.00,VWS V14.01,2013-03-29 02:14:00,
2013-03-28 21:19:00,67.8,52.5,29.94,ESE,107,8.0,12.0,58,0.00,,---,0.00,VWS V14.01,2013-03-29 02:19:00,
2013-03-28 21:24:00,67.7,52.4,29.94,ESE,120,6.0,12.0,58,0.00,,---,0.00,VWS V14.01,2013-03-29 02:24:00,
2013-03-28 21:30:00,67.5,52.7,29.94,ESE,114,8.0,12.0,59,0.00,,---,0.00,VWS V14.01,2013-03-29 02:30:00,
2013-03-28 21:35:00,67.6,52.8,29.94,East,96,9.0,12.0,59,0.00,,---,0.00,VWS V14.01,2013-03-29 02:35:00,
2013-03-28 21:40:00,67.5,52.7,29.95,ESE,107,6.0,14.0,59,0.00,,---,0.00,VWS V14.01,2013-03-29 02:40:00,
2013-03-28 21:45:00,67.2,52.9,29.95,ESE,110,11.0,14.0,60,0.00,,---,0.00,VWS V14.01,2013-03-29 02:45:00,
2013-03-28 21:50:00,66.9,52.6,29.95,ESE,112,8.0,14.0,60,0.00,,---,0.00,VWS V14.01,2013-03-29 02:50:00,
2013-03-28 21:55:00,66.4,52.6,29.95,ESE,102,10.0,14.0,61,0.00,,---,0.00,VWS V14.01,2013-03-29 02:55:00,
2013-03-28 22:01:00,66.0,52.6,29.95,East,91,8.0,14.0,62,0.00,,---,0.00,VWS V14.01,2013-03-29 03:01:00,
2013-03-28 22:06:00,65.8,52.4,29.95,East,81,7.0,14.0,62,0.00,,---,0.00,VWS V14.01,2013-03-29 03:06:00,
2013-03-28 22:11:00,65.5,52.6,29.96,ESE,102,9.0,14.0,63,0.00,,---,0.00,VWS V14.01,2013-03-29 03:11:00,
2013-03-28 22:16:00,65.0,52.5,29.96,ESE,111,7.0,14.0,64,0.00,,---,0.00,VWS V14.01,2013-03-29 03:16:00,
2013-03-28 22:21:00,64.8,52.8,29.96,ESE,108,6.0,14.0,65,0.00,,---,0.00,VWS V14.01,2013-03-29 03:21:00,
2013-03-28 22:26:00,64.7,52.7,29.96,East,89,10.0,14.0,65,0.00,,---,0.00,VWS V14.01,2013-03-29 03:26:00,
2013-03-28 22:31:00,65.0,53.4,29.96,ESE,106,11.0,14.0,66,0.00,,---,0.00,VWS V14.01,2013-03-29 03:31:00,
2013-03-28 22:36:00,65.2,53.2,29.96,ESE,112,11.0,18.0,65,0.00,,---,0.00,VWS V14.01,2013-03-29 03:36:00,
2013-03-28 22:41:00,65.3,53.2,29.96,ESE,114,6.0,18.0,65,0.00,,---,0.00,VWS V14.01,2013-03-29 03:41:00,
2013-03-28 22:47:00,65.3,53.7,29.97,ESE,110,16.0,18.0,66,0.00,,---,0.00,VWS V14.01,2013-03-29 03:47:00,
2013-03-28 22:52:00,65.4,53.8,29.97,ESE,105,8.0,18.0,66,0.00,,---,0.00,VWS V14.01,2013-03-29 03:52:00,
2013-03-28 22:57:00,65.3,53.7,29.97,SE,127,8.0,18.0,66,0.00,,---,0.00,VWS V14.01,2013-03-29 03:57:00,
2013-03-28 23:00:00,65.2,53.6,29.97,East,84,7.0,18.0,66,0.00,,---,0.00,VWS V14.01,2013-03-29 04:00:00,
2013-03-28 23:01:00,65.1,53.5,29.97,East,99,11.0,18.0,66,0.00,,---,0.00,VWS V14.01,2013-03-29 04:01:00,
2013-03-28 23:06:00,64.9,53.7,29.97,East,90,11.0,15.0,67,0.00,,---,0.00,VWS V14.01,2013-03-29 04:06:00,
2013-03-28 23:11:00,64.6,53.4,29.97,ESE,102,12.0,17.0,67,0.00,,---,0.00,VWS V14.01,2013-03-29 04:11:00,
2013-03-28 23:16:00,64.4,53.6,29.97,East,84,9.0,17.0,68,0.00,,---,0.00,VWS V14.01,2013-03-29 04:16:00,
2013-03-28 23:21:00,64.3,53.5,29.97,ESE,104,8.0,17.0,68,0.00,,---,0.00,VWS V14.01,2013-03-29 04:21:00,
2013-03-28 23:26:00,64.1,53.3,29.97,East,101,9.0,17.0,68,0.00,,---,0.00,VWS V14.01,2013-03-29 04:26:00,
2013-03-28 23:31:00,63.8,53.5,29.97,East,80,7.0,12.0,69,0.00,,---,0.00,VWS V14.01,2013-03-29 04:31:00,
2013-03-28 23:36:00,63.7,53.3,29.97,ESE,104,10.0,13.0,69,0.00,,---,0.00,VWS V14.01,2013-03-29 04:36:00,
2013-03-28 23:41:00,63.6,53.7,29.97,ESE,104,13.0,14.0,70,0.00,,---,0.00,VWS V14.01,2013-03-29 04:41:00,
2013-03-28 23:47:00,63.4,53.5,29.97,East,100,10.0,14.0,70,0.00,,---,0.00,VWS V14.01,2013-03-29 04:47:00,
2013-03-28 23:52:00,63.2,53.3,29.97,East,98,14.0,14.0,70,0.00,,---,0.00,VWS V14.01,2013-03-29 04:52:00,
2013-03-28 23:57:00,62.9,53.4,29.97,ESE,109,10.0,14.0,71,0.00,,---,0.00,VWS V14.01,2013-03-29 04:57:00,